This demonstration page uses our WeatherBlox Daily Observations layout. Learn more.

Left ArrowRight Arrow

41.12389, -100.76542

Hourly Observations for March 30, 2021

Temp ( °F °C ) Dew Point ( °F °C ) Humidity (%) Winds ( mph kmh ) Pressure ( in mb ) Visibility ( mi km ) Precip ( " mm )
12:53 am 00:53 Clear 42 5.6 13 -10.6 30 30 N 20 31 29.75 1007 10 16 0.00 0.00
1:53 am 01:53 Clear 39 3.9 9 -12.8 29 29 N 15 24 29.81 1010 10 16 0.00 0.00
2:53 am 02:53 Clear 38 3.3 10 -12.2 31 31 N 10 17 29.84 1010 10 16 0.00 0.00
3:53 am 03:53 Mostly Cloudy 38 3.3 10 -12.2 31 31 N 7 11 29.85 1011 10 16 0.00 0.00
4:53 am 04:53 Mostly Cloudy 38 3.3 10 -12.2 31 31 N 10 17 29.87 1012 10 16 0.00 0.00
5:53 am 05:53 Cloudy 37 2.8 12 -11.1 36 36 NW 7 11 29.89 1012 10 16 0.00 0.00
6:53 am 06:53 Mostly Cloudy 35 1.7 16 -8.9 46 46 WNW 6 9 29.93 1013 10 16 0.00 0.00
7:53 am 07:53 Mostly Cloudy 35 1.7 20 -6.7 54 54 WNW 3 6 29.99 1016 10 16 0.00 0.00
8:53 am 08:53 Partly Cloudy 38 3.3 19 -7.2 46 46 WNW 10 17 30.01 1016 10 16 0.00 0.00
9:53 am 09:53 Cloudy 41 5 15 -9.4 35 35 NW 14 22 30.04 1017 10 16 0.00 0.00
10:53 am 10:53 Cloudy 43 6.1 15 -9.4 32 32 NNW 16 26 30.06 1018 10 16 0.00 0.00
11:53 am 11:53 Mostly Sunny 43 6.1 14 -10 31 31 NNW 16 26 30.08 1019 10 16 0.00 0.00
12:53 pm 12:53 Mostly Sunny 45 7.2 15 -9.4 30 30 N 14 22 30.07 1018 10 16 0.00 0.00
1:53 pm 13:53 Mostly Sunny 46 7.8 11 -11.7 24 24 NNW 13 20 30.08 1019 10 16 0.00 0.00
2:53 pm 14:53 Mostly Cloudy 46 7.8 10 -12.2 23 23 WNW 16 26 30.07 1018 10 16 0.00 0.00
3:53 pm 15:53 Partly Cloudy 49 9.4 11 -11.7 21 21 WNW 18 30 30.06 1018 10 16 0.00 0.00
4:53 pm 16:53 Partly Cloudy 49 9.4 10 -12.2 21 21 NW 13 20 30.07 1018 10 16 0.00 0.00
5:53 pm 17:53 Mostly Cloudy 49 9.4 9 -12.8 20 20 NW 22 35 30.10 1019 10 16 0.00 0.00
6:53 pm 18:53 Mostly Sunny 47 8.3 7 -13.9 19 19 NNW 17 28 30.12 1020 10 16 0.00 0.00
7:53 pm 19:53 Sunny 43 6.1 7 -13.9 22 22 NNW 12 19 30.16 1021 10 16 0.00 0.00
8:53 pm 20:53 Clear 36 2.2 8 -13.3 31 31 NNW 7 11 30.20 1023 10 16 0.00 0.00
9:53 pm 21:53 Clear 29 -1.7 11 -11.7 47 47 NW 5 7 30.25 1024 10 16 0.00 0.00
10:53 pm 22:53 Partly Cloudy 29 -1.7 12 -11.1 49 49 NW 6 9 30.28 1026 10 16 0.00 0.00
11:53 pm 23:53 Partly Cloudy 27 -2.8 14 -10 58 58 NNW 5 7 30.31 1026 10 16 0.00 0.00

Powered by AerisWeather